Regional Weather Roundup
Issued by NWS Green Bay, WI

Home | Current Version | Previous Version | Graphics & Text | Print | Product List | Glossary Off
Versions: 1 2 3 4 5 6 7 8 9 10 11 12 13 14 15 16 17 18 19 20 21 22 23 24 25 26 27 28 29 30 31 32 33 34 35 36 37 38 39 40 41 42 43 44 45 46 47 48 49 50

000
ASUS43 KGRB 211100
RWRGRB

NORTH-CENTRAL AND NORTHEAST WISCONSIN REGIONAL WEATHER ROUNDUP
NATIONAL WEATHER SERVICE GREEN BAY WI
600 AM CDT SAT APR 21 2018

WIZ005-009-010>012-018-019-211200-
NORTH CENTRAL WISCONSIN

CITY           SKY/WX    TMP DP  RH WIND       PRES   REMARKS
IRONWOOD       FAIR      25  20  81 CALM      30.41R
MANITOWISH WTR NOT AVBL
ARBOR VITAE    NOT AVBL
EAGLE RIVER    FAIR      26  19  77 CALM      30.40R
LAND O LAKES   FAIR      21  18  88 CALM      30.41S
RHINELANDER    FAIR      29  20  69 CALM      30.41R
PHILLIPS       FAIR      26  22  85 CALM      30.40S
ANTIGO         NOT AVBL
TOMAHAWK       NOT AVBL
MERRILL        FAIR      26  23  87 CALM      30.42S
$$

WIZ013-073-211200-
NORTHEAST WISCONSIN

CITY           SKY/WX    TMP DP  RH WIND       PRES   REMARKS
IRON MOUNTAIN  FAIR      31  20  63 CALM      30.38S
MARINETTE      FAIR      36  21  54 CALM      30.43S
$$

WIZ017-030-035>037-045-211200-
CENTRAL WISCONSIN

CITY           SKY/WX    TMP DP  RH WIND       PRES   REMARKS
MEDFORD        NOT AVBL
WAUSAU         FAIR      29  23  78 CALM      30.40S
MOSINEE        CLOUDY    34  16  47 CALM      30.42S
MARSHFIELD     FAIR      34  23  64 CALM      30.40S
WISC RAPIDS    FAIR      30  21  69 CALM      30.43S
STEVENS POINT  NOT AVBL
WAUPACA        FAIR      32  26  78 CALM      30.44R
SHAWANO        FAIR      31  24  74 CALM      30.42S
CLINTONVILLE   FAIR      29  23  78 W3        30.43S
WAUTOMA        FAIR      30  25  81 CALM      30.44S
$$

WIZ038-039-048-051-211200-
FOX VALLEY

CITY           SKY/WX    TMP DP  RH WIND       PRES   REMARKS
NWS GREEN BAY  FAIR      30  26  85 CALM      30.43S
APPLETON       MOCLDY    34  19  55 CALM      30.41S
OSHKOSH        FAIR      33  22  63 CALM      30.43R
FOND DU LAC    FAIR      31  24  75 CALM      30.43S
$$

WIZ022-050-052-211200-
EAST CENTRAL WISCONSIN

CITY           SKY/WX    TMP DP  RH WIND       PRES   REMARKS
EPHRAIM        NOT AVBL
WASHINGTON ISL NOT AVBL
STURGEON BAY   FAIR      37  20  50 CALM      30.44R
MANITOWOC      FAIR      30  26  85 CALM      30.44S
SHEBOYGAN      FAIR      32  28  85 CALM      30.43F
$$

LMZ563-521-522-541>543-211200-
LAKESHORE

STATION/POSITION TIME  TEMP    WIND        PRES    VSBY  WAVE
                       AIR SEA DIR/SP/G                  HT/PER
                 (UTC) (F)     (DEG/KT/KT) (MB)    (MI)  (FT/S)
SHEBOYGAN LKSHOR 1000   39     230/  2/  2 1031.3S
KEWAUNEE LKSHORE 1030   30     320/  4/  4 1029.8R
NORTHPORT PIER   1040   38                 1029.1S
SISTER BAY LKSHO 1012   40      CALM  /  2   N/A
MENOMINEE LKSHOR 1030   39     230/  5/  6 1029.6R
$$




USA.gov is the U.S. government's official web portal to all federal, state and local government web resources and services.